This is the latest recevied weather packets stored in our database for station/object W5CRT. If no packets are shown the sender has not sent any weather packets the latest 10 day(s).
| Time | Temp. | Humidity | Pressure | Rain* | Wind** | Luminosity | Snow |
|---|---|---|---|---|---|---|---|
| 1778076778 | 12.22° C | 81% | 1012 hPa | 0 mm | - | 71 W/m² | - |
| 1778076475 | 12.22° C | 82% | 1011.8 hPa | 0 mm | - | 70 W/m² | - |
| 1778076172 | 12.22° C | 83% | 1011.9 hPa | 0 mm | - | 62 W/m² | - |
| 1778075869 | 12.22° C | 83% | 1011.7 hPa | 0 mm | - | 67 W/m² | - |
| 1778075565 | 11.67° C | 83% | 1011.8 hPa | 0 mm | - | 53 W/m² | - |
| 1778075262 | 11.67° C | 83% | 1011.6 hPa | 0 mm | - | 60 W/m² | - |
| 1778074959 | 11.67° C | 83% | 1012 hPa | 0 mm | - | 47 W/m² | - |
| 1778074656 | 11.67° C | 83% | 1011.8 hPa | 0 mm | - | 51 W/m² | - |
| 1778074352 | 11.67° C | 83% | 1011.7 hPa | 0 mm | - | 40 W/m² | - |
| 1778074049 | 11.67° C | 83% | 1011.3 hPa | 0 mm | - | 43 W/m² | - |
| 1778073747 | 11.67° C | 83% | 1011.4 hPa | 0 mm | - | 40 W/m² | - |
| 1778073444 | 11.67° C | 82% | 1011.5 hPa | 0 mm | - | 27 W/m² | - |
| 1778073140 | 11.67° C | 82% | 1011.4 hPa | 0 mm | - | 27 W/m² | - |
| 1778072837 | 11.67° C | 82% | 1011.3 hPa | 0 mm | - | 32 W/m² | - |
| 1778072534 | 11.67° C | 82% | 1011.4 hPa | 0 mm | - | 30 W/m² | - |
| 1778072232 | 11.67° C | 82% | 1011.6 hPa | 0 mm | - | 29 W/m² | - |
| 1778071930 | 11.67° C | 82% | 1011.1 hPa | 0 mm | - | 33 W/m² | - |
| 1778071628 | 11.67° C | 82% | 1011.1 hPa | 0 mm | - | 30 W/m² | - |
| 1778071326 | 11.67° C | 82% | 1011.2 hPa | 0 mm | - | 22 W/m² | - |
| 1778071023 | 12.22° C | 81% | 1011.5 hPa | 0 mm | - | 19 W/m² | - |
| 1778070721 | 12.22° C | 82% | 1011.1 hPa | 0 mm | - | 24 W/m² | - |
| 1778070418 | 12.22° C | 83% | 1011 hPa | 0 mm | - | 16 W/m² | - |
| 1778070115 | 11.67° C | 82% | 1010.7 hPa | 0 mm | - | 16 W/m² | - |
| 1778069813 | 11.67° C | 83% | 1011.1 hPa | 0 mm | - | 14 W/m² | - |
| 1778069509 | 12.22° C | 82% | 1011 hPa | 0 mm | - | 11 W/m² | - |
* Rain latest hour (hover to see other rain measurements)
** Current wind speed in m/s (hover to see current wind gust speed)